GW0751 Weather Reports


Display with metric or nautical units.
time (UTC)temp
F
wind
direction
speed
MPH
gust
MPH
rain 1hr
in
rain 24hr
in
rain mn
in
humidity
%
barometer
mb
20260903222324 68 248 1.0 1.0 0.00 0.00 0.56 77 1012.6
20260903221249 68 338 1.0 1.0 0.00 0.00 0.56 77 1012.6
20260903220228 69 225 3.0 3.0 0.00 0.00 0.56 76 1012.6
20260903215709 69 225 4.0 4.0 0.00 0.00 0.56 75 1012.6
20260903215149 69 248 4.0 4.0 0.00 0.00 0.56 74 1012.8
20260903214634 69 225 5.0 5.0 0.00 0.00 0.56 73 1012.8
20260903213554 71 225 3.0 3.0 0.00 0.00 0.56 72 1012.8
20260903212519 71 225 4.0 4.0 0.00 0.00 0.56 72 1012.6
20260903211959 71 180 3.0 3.0 0.01 0.00 0.56 73 1012.6
20260903211439 71 248 4.0 4.0 0.01 0.00 0.56 72 1012.6
20260903210919 71 45 4.0 4.0 0.01 0.00 0.56 72 1012.6
20260903210404 71 270 4.0 4.0 0.01 0.00 0.56 72 1012.9
20260903205844 72 203 3.0 3.0 0.01 0.00 0.56 72 1012.9
20260903205324 72 248 2.0 2.0 0.01 0.00 0.56 72 1012.9
20260903204804 72 203 3.0 3.0 0.01 0.00 0.56 71 1012.9
20260903204249 72 338 4.0 4.0 0.01 0.00 0.56 70 1012.9
20260903203729 73 225 4.0 4.0 0.01 0.00 0.56 70 1012.8
20260903203209 74 270 4.0 4.0 0.01 0.00 0.56 71 1012.8
20260903202648 73 270 3.0 3.0 0.01 0.00 0.56 72 1012.9
20260903202134 74 158 4.0 4.0 0.01 0.00 0.56 72 1012.9
20260903201614 73 0 4.0 4.0 0.00 0.00 0.55 72 1013.0
20260903200534 73 225 4.0 4.0 0.00 0.00 0.55 73 1013.1
20260903200019 73 203 3.0 3.0 0.00 0.00 0.55 74 1013.1
20260903195459 72 225 2.0 2.0 0.00 0.00 0.55 75 1013.1
20260903194419 72 225 2.0 2.0 0.00 0.00 0.55 76 1013.1
20260903193859 73 338 1.0 1.0 0.00 0.00 0.55 74 1013.3
20260903193344 74 248 2.0 2.0 0.00 0.00 0.55 74 1013.3
20260903192844 73 180 3.0 3.0 0.00 0.00 0.55 76 1013.5
20260903192324 71 113 1.0 1.0 0.00 0.00 0.55 80 1013.5
20260903191824 69 293 1.0 1.0 0.00 0.00 0.55 82 1013.5
20260903190804 68 203 1.0 1.0 0.00 0.00 0.55 83 1013.6
20260903190244 66 180 3.0 3.0 0.00 0.00 0.55 85 1013.7
20260903185729 66 203 6.0 6.0 0.00 0.00 0.55 85 1013.7
20260903184649 67 180 4.0 4.0 0.00 0.00 0.55 86 1013.6
20260903184129 66 248 1.0 1.0 0.00 0.00 0.55 89 1013.7
20260903183614 66 248 3.0 3.0 0.00 0.00 0.55 89 1013.7
20260903183054 65 225 4.0 4.0 0.01 0.00 0.55 91 1013.7
20260903182534 64 293 2.0 2.0 0.02 0.00 0.55 92 1013.7
20260903182014 64 225 3.0 3.0 0.02 0.00 0.55 93 1013.7
20260903181459 64 270 4.0 4.0 0.02 0.00 0.55 94 1013.6
20260903180939 64 248 3.0 3.0 0.03 0.00 0.55 94 1013.6
20260903180419 63 225 4.0 4.0 0.03 0.00 0.55 94 1013.5
20260903175859 63 180 5.0 5.0 0.04 0.00 0.55 95 1013.5
20260903174824 62 225 5.0 5.0 0.06 0.00 0.55 95 1013.5
20260903174304 62 270 5.0 5.0 0.07 0.00 0.55 95 1013.5
20260903173224 63 225 4.0 4.0 0.09 0.00 0.54 95 1013.5
20260903172709 62 203 4.0 4.0 0.09 0.00 0.54 96 1013.6
20260903172054 62 248 4.0 4.0 0.10 0.00 0.53 96 1013.6
20260903171034 62 248 5.0 5.0 0.09 0.00 0.52 96 1013.5
20260903170514 62 90 5.0 5.0 0.11 0.00 0.52 96 1013.4
20260903165954 62 248 5.0 5.0 0.10 0.00 0.51 96 1013.4
20260903165439 62 225 4.0 4.0 0.10 0.00 0.51 96 1013.4
20260903164919 62 248 6.0 6.0 0.09 0.00 0.49 96 1013.3
20260903164359 62 180 4.0 4.0 0.09 0.00 0.48 97 1013.3
20260903163324 62 203 4.0 4.0 0.08 0.00 0.45 97 1013.3
20260903162804 62 248 4.0 4.0 0.08 0.00 0.45 97 1013.3
20260903162244 62 225 5.0 5.0 0.07 0.00 0.44 97 1013.3
20260903161724 62 135 3.0 3.0 0.07 0.00 0.43 97 1013.5
20260903160649 62 180 2.0 2.0 0.08 0.00 0.41 97 1013.5
20260903160129 62 113 1.0 1.0 0.09 0.00 0.41 97 1013.5
20260903155609 62 180 2.0 2.0 0.10 0.00 0.41 97 1013.5
20260903154534 61 225 4.0 4.0 0.10 0.00 0.39 97 1013.5
20260903154014 61 248 4.0 4.0 0.10 0.00 0.38 97 1013.5
20260903153454 62 248 4.0 4.0 0.10 0.00 0.37 97 1013.5
20260903152954 62 180 3.0 3.0 0.11 0.00 0.37 97 1013.7
20260903152439 61 180 4.0 4.0 0.12 0.00 0.37 97 1013.7
20260903151934 61 203 3.0 3.0 0.11 0.00 0.36 97 1013.7
20260903150859 61 225 2.0 2.0 0.10 0.00 0.33 97 1013.6
20260903150339 61 225 5.0 5.0 0.10 0.00 0.32 97 1013.5
20260903145819 61 203 3.0 3.0 0.10 0.00 0.31 97 1013.5
20260903145320 61 248 3.0 3.0 0.10 0.00 0.30 97 1013.5
20260903144804 61 248 2.0 2.0 0.10 0.00 0.29 97 1013.5
20260903144244 61 180 3.0 3.0 0.10 0.00 0.28 97 1013.5
20260903143725 61 270 4.0 4.0 0.10 0.00 0.27 97 1013.4
20260903143204 61 248 4.0 4.0 0.11 0.00 0.26 97 1013.4
20260903142649 61 203 1.0 1.0 0.12 0.00 0.25 97 1013.4
20260903142130 61 203 3.0 3.0 0.14 0.00 0.25 97 1013.4
20260903141609 61 203 3.0 3.0 0.15 0.00 0.24 96 1013.3
20260903141049 61 225 3.0 3.0 0.14 0.00 0.23 96 1013.3
20260903140535 61 248 4.0 4.0 0.13 0.00 0.22 96 1013.1
20260903140014 61 270 1.0 1.0 0.13 0.00 0.21 96 1013.1
20260903135454 60 248 3.0 3.0 0.13 0.00 0.20 96 1013.1
20260903134934 60 180 1.0 1.0 0.12 0.00 0.19 96 1013.1
20260903134419 60 225 1.0 1.0 0.12 0.00 0.18 96 1013.1
20260903133859 60 203 1.0 1.0 0.12 0.00 0.17 96 1013.3
20260903133339 60 203 3.0 3.0 0.10 0.00 0.15 96 1013.3
20260903132306 60 248 3.0 3.0 0.08 0.00 0.11 96 1013.4
20260903131804 60 225 1.0 1.0 0.06 0.00 0.09 96 1013.4
20260903131244 60 270 3.0 3.0 0.06 0.00 0.09 96 1013.4
20260903130725 60 248 1.0 1.0 0.07 0.00 0.09 96 1013.4
20260903130204 60 270 1.0 1.0 0.06 0.00 0.08 96 1013.5
20260903125649 60 225 0.0 0.0 0.07 0.00 0.08 96 1013.5
20260903125129 60 248 0.0 0.0 0.06 0.00 0.07 96 1013.6
20260903124610 60 248 0.0 0.0 0.06 0.00 0.06 96 1013.6
20260903124049 60 270 1.0 1.0 0.05 0.00 0.05 96 1013.8
20260903123014 60 225 2.0 2.0 0.04 0.00 0.04 96 1013.9
20260903122454 60 248 0.0 0.0 0.03 0.00 0.03 96 1013.9
20260903121934 60 158 0.0 0.0 0.03 0.00 0.03 96 1013.9
20260903121419 60 225 0.0 0.0 0.03 0.00 0.03 96 1014.0
20260903120859 60 23 1.0 1.0 0.02 0.00 0.02 96 1014.0
20260903120340 60 225 0.0 0.0 0.02 0.00 0.02 96 1014.0
20260903115819 60 203 0.0 0.0 0.01 0.00 0.01 96 1014.0
20260903115306 60 248 0.0 0.0 0.01 0.00 0.01 96 1014.0
20260903114244 60 180 0.0 0.0 0.00 0.00 0.00 96 1014.0
20260903113724 60 225 1.0 1.0 0.00 0.00 0.00 96 1014.1
20260903113204 60 225 0.0 0.0 0.00 0.00 0.00 96 1014.1
20260903112649 60 203 0.0 0.0 0.00 0.00 0.00 96 1014.2
20260903112129 60 225 0.0 0.0 0.00 0.00 0.00 96 1014.2
20260903111610 60 225 0.0 0.0 0.00 0.00 0.00 96 1014.3
20260903111049 60 225 0.0 0.0 0.00 0.00 0.00 96 1014.3
20260903110534 60 225 0.0 0.0 0.00 0.00 0.00 96 1014.4
20260903110015 60 180 0.0 0.0 0.00 0.00 0.00 96 1014.4
20260903105454 60 225 0.0 0.0 0.00 0.00 0.00 95 1014.4
20260903104934 60 248 0.0 0.0 0.00 0.00 0.00 95 1014.4
20260903103900 59 180 0.0 0.0 0.00 0.00 0.00 95 1014.5
20260903103340 59 113 0.0 0.0 0.00 0.00 0.00 95 1014.5
20260903102819 59 68 0.0 0.0 0.00 0.00 0.00 95 1014.5
20260903101744 60 45 0.0 0.0 0.00 0.00 0.00 95 1014.6
20260903101224 60 180 0.0 0.0 0.00 0.00 0.00 95 1014.6
20260903100705 60 180 0.0 0.0 0.00 0.00 0.00 95 1014.6
20260903100150 60 225 0.0 0.0 0.00 0.00 0.00 95 1014.6
20260903095650 60 248 0.0 0.0 0.00 0.00 0.00 95 1014.6
20260903095129 60 225 0.0 0.0 0.00 0.00 0.00 95 1014.6
20260903094609 60 225 0.0 0.0 0.00 0.00 0.00 95 1014.6
20260903094050 60 225 0.0 0.0 0.00 0.00 0.00 95 1014.8
20260903093535 59 203 0.0 0.0 0.00 0.00 0.00 95 1014.8
20260903092455 59 225 0.0 0.0 0.00 0.00 0.00 95 1015.0
20260903091934 59 135 0.0 0.0 0.00 0.00 0.00 95 1015.0
20260903091419 59 225 0.0 0.0 0.00 0.00 0.00 95 1015.1
20260903090859 59 248 0.0 0.0 0.00 0.00 0.00 95 1015.1
20260903090340 59 203 0.0 0.0 0.00 0.00 0.00 95 1015.2
20260903085820 59 248 0.0 0.0 0.00 0.00 0.00 95 1015.2
20260903085306 59 225 0.0 0.0 0.00 0.00 0.00 94 1015.2
20260903084745 59 203 0.0 0.0 0.00 0.00 0.00 94 1015.2
20260903084225 58 248 0.0 0.0 0.00 0.00 0.00 94 1015.3
20260903083705 58 180 0.0 0.0 0.00 0.00 0.00 94 1015.3
20260903082630 58 225 0.0 0.0 0.00 0.00 0.00 94 1015.3
20260903082110 58 270 0.0 0.0 0.00 0.00 0.00 94 1015.3
20260903081550 58 225 0.0 0.0 0.00 0.00 0.00 94 1015.5
20260903081030 57 203 0.0 0.0 0.00 0.00 0.00 94 1015.5
20260903080515 57 225 0.0 0.0 0.00 0.00 0.00 94 1015.5
20260903075435 57 248 0.0 0.0 0.00 0.00 0.00 94 1015.5
20260903074920 57 270 0.0 0.0 0.00 0.00 0.00 94 1015.5
20260903074400 57 225 0.0 0.0 0.00 0.00 0.00 94 1015.5
20260903073320 58 293 0.0 0.0 0.00 0.00 0.00 94 1015.5
20260903072245 58 203 0.0 0.0 0.00 0.00 0.00 94 1015.5
20260903071745 58 315 0.0 0.0 0.00 0.00 0.00 94 1015.6
20260903071225 58 180 0.0 0.0 0.00 0.00 0.00 94 1015.6
20260903070705 58 180 0.0 0.0 0.00 0.00 0.00 94 1015.6
20260903070205 58 270 0.0 0.0 0.00 0.00 0.00 94 1015.6
20260903065705 58 248 0.0 0.0 0.00 0.00 0.66 94 1015.6
20260903065145 58 225 0.0 0.0 0.00 0.00 0.66 94 1015.7
20260903064630 58 23 0.0 0.0 0.00 0.00 0.66 94 1015.7
20260903063550 58 270 0.0 0.0 0.00 0.00 0.66 94 1015.8
20260903063030 58 113 0.0 0.0 0.00 0.00 0.66 94 1015.8
20260903062515 57 248 0.0 0.0 0.00 0.00 0.66 94 1015.8
20260903061955 57 225 0.0 0.0 0.00 0.00 0.66 94 1015.8
20260903061435 57 225 0.0 0.0 0.00 0.00 0.66 93 1016.0
20260903060915 56 270 0.0 0.0 0.00 0.00 0.66 92 1016.0
20260903060400 56 248 0.0 0.0 0.00 0.00 0.66 92 1015.8
20260903055840 56 270 0.0 0.0 0.00 0.00 0.66 92 1015.8
20260903055320 55 225 0.0 0.0 0.00 0.00 0.66 92 1015.8
20260903054245 56 203 0.0 0.0 0.00 0.00 0.66 92 1015.8
20260903053725 56 225 0.0 0.0 0.00 0.00 0.66 92 1016.0
20260903052130 57 180 0.0 0.0 0.00 0.00 0.66 92 1016.0
20260903051610 57 180 0.0 0.0 0.00 0.00 0.66 92 1016.0
20260903051050 57 225 1.0 1.0 0.00 0.00 0.66 92 1016.0
20260903050530 57 203 0.0 0.0 0.00 0.00 0.66 91 1016.2
20260903050015 57 225 0.0 0.0 0.00 0.00 0.66 91 1016.2
20260903045455 57 203 0.0 0.0 0.00 0.00 0.66 91 1016.2
20260903044935 57 248 0.0 0.0 0.00 0.00 0.66 91 1016.2
20260903044415 57 270 0.0 0.0 0.00 0.00 0.66 91 1016.2
20260903043915 57 270 0.0 0.0 0.00 0.00 0.66 91 1016.2
20260903043400 57 270 0.0 0.0 0.00 0.00 0.66 90 1016.2
20260903042840 58 203 0.0 0.0 0.00 0.00 0.66 90 1016.2
20260903042320 57 23 0.0 0.0 0.00 0.00 0.66 90 1016.2
20260903041800 57 135 0.0 0.0 0.00 0.00 0.66 90 1016.2
20260903041245 57 225 0.0 0.0 0.00 0.00 0.66 90 1016.2
20260903040205 58 135 0.0 0.0 0.00 0.00 0.66 89 1015.8
20260903035130 58 225 0.0 0.0 0.00 0.00 0.66 88 1015.8
20260903034610 58 203 0.0 0.0 0.00 0.00 0.66 88 1015.8
20260903034051 58 180 0.0 0.0 0.00 0.00 0.66 88 1015.8
20260903033530 58 225 0.0 0.0 0.00 0.00 0.66 87 1015.8
20260903033015 58 203 0.0 0.0 0.00 0.00 0.66 87 1015.6
20260903032455 59 248 0.0 0.0 0.00 0.00 0.66 86 1015.6
20260903031935 59 225 0.0 0.0 0.00 0.00 0.66 86 1015.6
20260903031416 59 135 0.0 0.0 0.00 0.00 0.66 85 1015.5
20260903030900 59 225 0.0 0.0 0.00 0.00 0.66 85 1015.5
20260903030340 59 203 0.0 0.0 0.00 0.00 0.66 85 1015.5
20260903025840 60 225 1.0 1.0 0.00 0.00 0.66 85 1015.5
20260903025321 60 180 0.0 0.0 0.00 0.00 0.66 84 1015.7
20260903024800 60 225 0.0 0.0 0.00 0.00 0.66 84 1015.7
20260903024245 60 225 0.0 0.0 0.00 0.00 0.66 84 1015.7
20260903023725 60 248 1.0 1.0 0.00 0.00 0.66 83 1015.6
20260903023205 60 248 1.0 1.0 0.00 0.00 0.66 83 1015.6
20260903022645 61 248 3.0 3.0 0.00 0.00 0.66 82 1015.7
20260903022130 61 225 0.0 0.0 0.00 0.00 0.66 81 1015.7
20260903021050 61 293 2.0 2.0 0.00 0.00 0.66 80 1015.7
20260903020015 62 225 3.0 3.0 0.00 0.00 0.66 79 1015.7
20260903015455 62 203 4.0 4.0 0.00 0.00 0.66 79 1015.7
20260903014935 62 113 2.0 2.0 0.00 0.00 0.66 78 1015.8
20260903014415 62 158 4.0 4.0 0.00 0.00 0.66 78 1015.8
20260903013900 63 270 3.0 3.0 0.00 0.00 0.66 77 1015.8
20260903013340 63 248 5.0 5.0 0.00 0.00 0.66 77 1015.8
20260903012820 63 225 5.0 5.0 0.00 0.00 0.66 76 1015.8
20260903012300 64 270 4.0 4.0 0.00 0.00 0.66 75 1015.8
20260903011800 64 270 3.0 3.0 0.00 0.00 0.66 74 1016.0
20260903011245 65 203 5.0 5.0 0.00 0.00 0.66 73 1016.0
20260903010741 65 293 4.0 4.0 0.00 0.00 0.66 72 1016.0
20260903010205 66 270 5.0 5.0 0.00 0.00 0.66 71 1016.0
20260903005645 67 225 6.0 6.0 0.00 0.00 0.66 68 1016.0
20260903005125 68 203 4.0 4.0 0.00 0.00 0.66 68 1016.0
20260903004611 69 180 5.0 5.0 0.00 0.00 0.66 66 1016.0
20260903004051 71 225 4.0 4.0 0.00 0.00 0.66 64 1015.8
20260903003530 71 203 5.0 5.0 0.00 0.00 0.66 64 1015.8
20260903003010 71 225 5.0 5.0 0.00 0.00 0.66 64 1015.8
20260903002455 72 248 5.0 5.0 0.00 0.00 0.66 63 1015.8
20260903001935 73 248 5.0 5.0 0.00 0.00 0.66 62 1015.8
20260903000855 73 203 5.0 5.0 0.00 0.00 0.66 62 1016.0
20260903000335 74 270 5.0 5.0 0.00 0.00 0.66 61 1016.0
20260902235300 74 203 5.0 5.0 0.00 0.00 0.66 62 1016.0
20260902234740 75 203 5.0 5.0 0.00 0.00 0.66 59 1016.0
20260902234220 76 203 5.0 5.0 0.00 0.00 0.66 58 1016.0
20260902233705 77 225 3.0 3.0 0.00 0.00 0.66 58 1016.0
20260902233146 77 180 4.0 4.0 0.00 0.00 0.66 58 1016.0
20260902232625 78 225 6.0 6.0 0.00 0.00 0.66 57 1016.2
20260902232105 77 203 3.0 3.0 0.00 0.00 0.66 59 1016.2
20260902231550 77 203 4.0 4.0 0.00 0.00 0.66 59 1016.4
20260902231030 77 90 4.0 4.0 0.00 0.00 0.66 59 1016.4
20260902225936 75 248 4.0 4.0 0.00 0.00 0.66 61 1016.5
20260902225415 74 203 3.0 3.0 0.00 0.00 0.66 62 1016.5
20260902224855 74 270 4.0 4.0 0.00 0.00 0.66 62 1016.5
20260902224335 75 225 4.0 4.0 0.00 0.00 0.66 61 1016.5